When you browse on this site, cookies collect data to enhance your experience and personalize the content and advertising you see.
Visit our Privacy Policy to learn more. By continuing to use the site, you agree to this use of cookies and data.
  • In Hungary
  • List of Countries
  • For 7 days
  • Water Temperature
  • Satellite Maps
  • Weather Map
  • News
  • Weather Widgets
  • user-avatar
    Login

    Hourly Weather Blantyre

    Today, 19 January, Saturday

    Time Temperature Precipitation Wind Pressure Humidity
    00:00 +23°C° 1.4 mm 1 mps 672 mmHg 86%
    01:00 +23°C° 1.4 mm 1 mps 672 mmHg 86%
    02:00 +22°C° 0 mm 1 mps 672 mmHg 86%
    03:00 +22°C° 0.6 mm 1 mps 672 mmHg 86%
    04:00 +22°C° 0.6 mm 1 mps 672 mmHg 87%
    05:00 +22°C° 0.6 mm 1 mps 672 mmHg 87%
    06:00 +23°C° 0 mm 1 mps 673 mmHg 81%
    07:00 +25°C° 0 mm 1 mps 673 mmHg 75%
    08:00 +26°C° 0 mm 2 mps 674 mmHg 69%
    09:00 +28°C° 0 mm 2 mps 674 mmHg 62%
    10:00 +30°C° 0 mm 2 mps 674 mmHg 55%
    11:00 +31°C° 0 mm 3 mps 674 mmHg 48%
    12:00 +31°C° 0.8 mm 2 mps 673 mmHg 49%
    13:00 +31°C° 0.8 mm 2 mps 673 mmHg 49%
    14:00 +32°C° 0.8 mm 2 mps 673 mmHg 49%
    15:00 +30°C° 0.9 mm 2 mps 672 mmHg 53%
    16:00 +29°C° 0.9 mm 2 mps 672 mmHg 58%
    17:00 +28°C° 0.9 mm 1 mps 672 mmHg 62%
    18:00 +27°C° 1.6 mm 1 mps 672 mmHg 69%
    19:00 +25°C° 1.6 mm 1 mps 672 mmHg 76%
    20:00 +24°C° 1.6 mm 1 mps 672 mmHg 82%
    21:00 +23°C° 2.3 mm 1 mps 672 mmHg 84%
    22:00 +23°C° 2.3 mm 1 mps 673 mmHg 85%
    23:00 +23°C° 2.3 mm 1 mps 673 mmHg 87%

    Tomorrow, 20 January, Sunday

    Time Temperature Precipitation Wind Pressure Humidity
    00:00 +22°C° 2.2 mm 1 mps 673 mmHg 88%
    01:00 +20°C° 2.2 mm 0 mps 673 mmHg 88%
    02:00 +20°C° 2.2 mm 0 mps 672 mmHg 89%
    03:00 +20°C° 1.9 mm 0 mps 673 mmHg 89%
    04:00 +20°C° 1.9 mm 0 mps 673 mmHg 90%
    05:00 +20°C° 1.9 mm 0 mps 673 mmHg 90%
    06:00 +22°C° 1.2 mm 1 mps 674 mmHg 91%
    07:00 +22°C° 1.2 mm 1 mps 674 mmHg 91%
    08:00 +21°C° 1.2 mm 2 mps 675 mmHg 91%
    09:00 +23°C° 1.1 mm 2 mps 675 mmHg 91%
    10:00 +23°C° 1.1 mm 2 mps 674 mmHg 90%
    11:00 +22°C° 1.1 mm 3 mps 674 mmHg 89%
    12:00 +22°C° 1.1 mm 3 mps 674 mmHg 89%
    13:00 +22°C° 1.1 mm 3 mps 673 mmHg 88%
    14:00 +22°C° 1.1 mm 3 mps 673 mmHg 88%
    15:00 +22°C° 0.6 mm 3 mps 673 mmHg 88%
    16:00 +22°C° 0.6 mm 3 mps 673 mmHg 88%
    17:00 +22°C° 0.6 mm 3 mps 673 mmHg 88%
    18:00 +21°C° 0.4 mm 2 mps 673 mmHg 90%
    19:00 +21°C° 0.4 mm 2 mps 674 mmHg 92%
    20:00 +20°C° 0.4 mm 2 mps 674 mmHg 94%
    21:00 +20°C° 0.2 mm 2 mps 674 mmHg 94%
    22:00 +19°C° 0.2 mm 2 mps 675 mmHg 94%
    23:00 +19°C° 0.2 mm 2 mps 675 mmHg 93%

    Day after tomorrow, 21 January, Monday

    Time Temperature Precipitation Wind Pressure Humidity
    00:00 +19°C° 0 mm 2 mps 674 mmHg 94%
    01:00 +18°C° 0 mm 2 mps 674 mmHg 94%
    02:00 +18°C° 0 mm 2 mps 673 mmHg 94%
    03:00 +19°C° 0.1 mm 1 mps 673 mmHg 94%
    04:00 +19°C° 0.1 mm 1 mps 674 mmHg 94%
    05:00 +19°C° 0.1 mm 1 mps 674 mmHg 94%
    06:00 +18°C° 0.1 mm 2 mps 674 mmHg 92%
    07:00 +18°C° 0.1 mm 2 mps 675 mmHg 90%
    08:00 +19°C° 0.1 mm 2 mps 675 mmHg 88%
    09:00 +20°C° 0 mm 2 mps 675 mmHg 84%
    10:00 +21°C° 0 mm 2 mps 675 mmHg 80%
    11:00 +23°C° 0 mm 2 mps 675 mmHg 75%
    12:00 +23°C° 0.1 mm 2 mps 674 mmHg 75%
    13:00 +23°C° 0.1 mm 2 mps 674 mmHg 75%
    14:00 +22°C° 0.1 mm 3 mps 673 mmHg 75%
    15:00 +23°C° 0.3 mm 2 mps 673 mmHg 78%
    16:00 +21°C° 0.3 mm 2 mps 673 mmHg 80%
    17:00 +20°C° 0.3 mm 2 mps 672 mmHg 83%
    18:00 +21°C° 0.2 mm 1 mps 673 mmHg 84%
    19:00 +20°C° 0.2 mm 1 mps 673 mmHg 85%
    20:00 +18°C° 0.2 mm 0 mps 673 mmHg 86%
    21:00 +18°C° 0 mm 0 mps 673 mmHg 85%
    22:00 +20°C° 0 mm 1 mps 673 mmHg 85%
    23:00 +20°C° 0 mm 1 mps 673 mmHg 84%

    22 January, Tuesday

    Time Temperature Precipitation Wind Pressure Humidity
    00:00 +20°C° 0 mm 1 mps 673 mmHg 84%
    01:00 +20°C° 0 mm 1 mps 672 mmHg 83%
    02:00 +20°C° 0 mm 1 mps 672 mmHg 83%
    03:00 +20°C° 0 mm 1 mps 672 mmHg 83%
    04:00 +21°C° 0 mm 1 mps 672 mmHg 83%
    05:00 +20°C° 0 mm 2 mps 672 mmHg 83%
    06:00 +21°C° 0 mm 2 mps 672 mmHg 80%
    07:00 +23°C° 0 mm 2 mps 673 mmHg 77%
    08:00 +24°C° 0 mm 2 mps 673 mmHg 73%
    09:00 +26°C° 0 mm 3 mps 673 mmHg 65%
    10:00 +28°C° 0 mm 4 mps 673 mmHg 57%
    11:00 +30°C° 0 mm 4 mps 674 mmHg 49%
    12:00 +32°C° 0.2 mm 5 mps 673 mmHg 49%
    13:00 +32°C° 0.2 mm 5 mps 672 mmHg 48%
    14:00 +32°C° 0.2 mm 5 mps 671 mmHg 48%
    15:00 +30°C° 0.3 mm 4 mps 671 mmHg 51%
    16:00 +30°C° 0.3 mm 4 mps 671 mmHg 54%
    17:00 +29°C° 0.3 mm 3 mps 670 mmHg 57%
    18:00 +27°C° 0 mm 2 mps 671 mmHg 62%
    19:00 +25°C° 0 mm 2 mps 671 mmHg 67%
    20:00 +24°C° 0 mm 1 mps 671 mmHg 72%
    21:00 +23°C° 0 mm 1 mps 671 mmHg 74%
    22:00 +23°C° 0 mm 1 mps 671 mmHg 76%
    23:00 +23°C° 0 mm 2 mps 671 mmHg 79%

    23 January, Wednesday

    Time Temperature Precipitation Wind Pressure Humidity
    00:00 +23°C° 0.1 mm 2 mps 671 mmHg 81%
    01:00 +21°C° 0.1 mm 2 mps 670 mmHg 83%
    02:00 +21°C° 0.1 mm 2 mps 670 mmHg 85%
    03:00 +21°C° 0 mm 2 mps 670 mmHg 85%
    04:00 +21°C° 0 mm 2 mps 670 mmHg 85%
    05:00 +21°C° 0 mm 2 mps 670 mmHg 86%
    06:00 +23°C° 0 mm 2 mps 671 mmHg 80%
    07:00 +25°C° 0 mm 2 mps 671 mmHg 74%
    08:00 +26°C° 0 mm 2 mps 672 mmHg 68%
    09:00 +28°C° 0 mm 3 mps 672 mmHg 61%
    10:00 +30°C° 0 mm 3 mps 672 mmHg 53%
    11:00 +33°C° 0 mm 3 mps 672 mmHg 46%
    12:00 +33°C° 0 mm 3 mps 672 mmHg 46%
    13:00 +33°C° 0 mm 3 mps 671 mmHg 46%
    14:00 +33°C° 0 mm 3 mps 670 mmHg 46%
    15:00 +31°C° 0 mm 3 mps 670 mmHg 48%
    16:00 +30°C° 0 mm 2 mps 670 mmHg 51%
    17:00 +29°C° 0 mm 2 mps 670 mmHg 54%
    18:00 +28°C° 0 mm 2 mps 670 mmHg 59%
    19:00 +26°C° 0 mm 1 mps 671 mmHg 64%
    20:00 +25°C° 0 mm 1 mps 671 mmHg 69%
    21:00 +24°C° 0 mm 1 mps 671 mmHg 72%
    22:00 +24°C° 0 mm 1 mps 671 mmHg 75%
    23:00 +23°C° 0 mm 1 mps 671 mmHg 78%

    24 January, Thursday

    Time Temperature Precipitation Wind Pressure Humidity
    00:00 +23°C° 0.1 mm 2 mps 671 mmHg 80%
    01:00 +23°C° 0.1 mm 2 mps 670 mmHg 82%
    02:00 +21°C° 0.1 mm 2 mps 670 mmHg 84%
    03:00 +21°C° 0.4 mm 2 mps 670 mmHg 85%
    04:00 +21°C° 0.4 mm 2 mps 670 mmHg 86%
    05:00 +21°C° 0.4 mm 2 mps 670 mmHg 87%
    06:00 +23°C° 0.2 mm 2 mps 671 mmHg 80%
    07:00 +25°C° 0.2 mm 2 mps 672 mmHg 73%
    08:00 +27°C° 0.2 mm 2 mps 672 mmHg 66%
    09:00 +29°C° 0.2 mm 3 mps 672 mmHg 59%
    10:00 +30°C° 0.2 mm 3 mps 672 mmHg 52%
    11:00 +33°C° 0.2 mm 4 mps 672 mmHg 46%
    12:00 +31°C° 0 mm 3 mps 672 mmHg 47%
    13:00 +31°C° 0 mm 3 mps 671 mmHg 49%
    14:00 +30°C° 0 mm 2 mps 670 mmHg 50%
    15:00 +30°C° 0 mm 2 mps 670 mmHg 53%
    16:00 +29°C° 0 mm 1 mps 670 mmHg 56%
    17:00 +28°C° 0 mm 1 mps 670 mmHg 59%
    18:00 +27°C° 1 mm 1 mps 671 mmHg 64%
    19:00 +25°C° 1 mm 1 mps 671 mmHg 70%
    20:00 +24°C° 1 mm 1 mps 671 mmHg 75%
    21:00 +24°C° 1.1 mm 1 mps 671 mmHg 78%
    22:00 +23°C° 1.1 mm 1 mps 672 mmHg 80%
    23:00 +23°C° 1.1 mm 1 mps 672 mmHg 83%
    Show more